Franklin, NC

10:21 AM EST on January 20, 2018 (GMT -0500)
Franklin

Weather History for K1A5 - October, 2013

Change the Weather History Date:

Friday, October 4, 2013

  Actual Average (KTOC) Record (KTOC)
Temperature  
Mean Temperature 66 °F -  
Max Temperature 78 °F 77 °F 85 °F (2016)
Min Temperature 54 °F 52 °F 44 °F (2014)
Cooling Degree Days 1    
Growing Degree Days 16 (Base 50)    
Moisture  
Dew Point 56 °F    
Average Humidity 84    
Maximum Humidity 99    
Minimum Humidity 41    
Precipitation  
Precipitation 0.00 in - - ()
Sea Level Pressure  
Sea Level Pressure 30.22 in    
Wind  
Wind Speed 0 mph (SW)    
Max Wind Speed 5 mph    
Max Gust Speed -    
Visibility 5 miles    
Events Fog    
Averages and records for this station are not official NWS values.
T = Trace of Precipitation, MM = Missing Value Source: NWS Daily Summary

Daily Weather History Graph

Daily Weather History Graph

Search for Another Location

Airport or City:

Trip Planner

Search our weather history database for the weather conditions in past years. The results will help you decide how hot, cold, wet, or windy it might be!

Date:

Astronomy

Oct. 04, 2013 Rise Set
Actual Time 7:31 AM EDT 7:13 PM EDT
Civil Twilight 7:05 AM EDT 7:38 PM EDT
Nautical Twilight 6:36 AM EDT 8:07 PM EDT
Astronomical Twilight 6:06 AM EDT 8:37 PM EDT
Moon 7:05 AM EDT (10/4) 6:56 PM EDT (10/4)
Length of Visible Light 12h 32m
Length of Day
11h 41m
Waning Crescent, 0% of the Moon is Illuminated
Oct 4
Waning Crescent
Oct 4
New
Oct 11
First Quarter
Oct 18
Full
Oct 26
Last Quarter

Hourly Weather History & Observations

Time (EDT) Temp. Dew Point Humidity Pressure Visibility Wind Dir Wind Speed Gust Speed Precip Events Conditions
12:35 AM 55.0 °F 54.5 °F 98% 30.22 in 1.5 mi Calm Calm - N/A   Overcast
12:55 AM 55.4 °F 54.7 °F 97% 30.22 in 2.5 mi Calm Calm - N/A   Overcast
1:15 AM 55.6 °F 55.0 °F 98% 30.22 in 0.5 mi Calm Calm - N/A Fog Fog
1:35 AM 55.6 °F 55.0 °F 98% 30.21 in 0.5 mi Calm Calm - N/A Fog Fog
1:55 AM 56.1 °F 55.4 °F 97% 30.22 in 0.2 mi Calm Calm - N/A Fog Fog
2:15 AM 55.9 °F 55.4 °F 98% 30.22 in 0.2 mi Calm Calm - N/A Fog Fog
2:35 AM 55.6 °F 54.9 °F 97% 30.22 in 0.2 mi Calm Calm - N/A Fog Fog
2:55 AM 55.9 °F 55.4 °F 98% 30.21 in 0.2 mi Calm Calm - N/A Fog Fog
3:15 AM 56.1 °F 55.4 °F 97% 30.21 in 0.2 mi Calm Calm - N/A Fog Fog
3:35 AM 55.6 °F 54.9 °F 97% 30.21 in 0.2 mi Calm Calm - N/A Fog Fog
3:55 AM 55.6 °F 54.9 °F 97% 30.21 in 0.2 mi Calm Calm - N/A Fog Fog
4:15 AM 55.4 °F 54.7 °F 97% 30.21 in 0.2 mi Calm Calm - N/A Fog Fog
4:35 AM 55.2 °F 54.5 °F 97% 30.22 in 0.2 mi Calm Calm - N/A Fog Fog
4:55 AM 55.0 °F 54.1 °F 97% 30.21 in 0.2 mi Calm Calm - N/A Fog Fog
5:15 AM 54.9 °F 54.1 °F 97% 30.22 in 0.5 mi Calm Calm - N/A Fog Fog
5:35 AM 54.5 °F 53.8 °F 97% 30.23 in 0.5 mi Calm Calm - N/A Fog Fog
5:55 AM 54.7 °F 53.8 °F 97% 30.23 in 0.2 mi Calm Calm - N/A Fog Fog
6:15 AM 54.5 °F 53.6 °F 97% 30.23 in 0.2 mi Calm Calm - N/A Fog Fog
6:35 AM 54.5 °F 53.6 °F 97% 30.23 in 0.5 mi Calm Calm - N/A Fog Fog
6:55 AM 54.5 °F 53.6 °F 97% 30.23 in 0.5 mi Calm Calm - N/A Fog Fog
7:15 AM 54.5 °F 53.6 °F 97% 30.24 in 5.0 mi Calm Calm - N/A   Overcast
7:35 AM 54.5 °F 53.6 °F 97% 30.25 in 0.5 mi Calm Calm - N/A Fog Fog
7:55 AM 54.5 °F 53.6 °F 97% 30.25 in 0.5 mi Calm Calm - N/A Fog Fog
8:35 AM 54.5 °F 53.6 °F 97% 30.26 in 0.2 mi Calm Calm - N/A Fog Fog
8:55 AM 54.5 °F 53.6 °F 97% 30.26 in 0.2 mi Calm Calm - N/A Fog Fog
9:15 AM 54.5 °F 53.6 °F 97% 30.26 in 0.8 mi Calm Calm - N/A   Overcast
9:35 AM 54.9 °F 54.0 °F 97% 30.27 in 1.5 mi Calm Calm - N/A   Overcast
9:55 AM 55.0 °F 54.1 °F 97% 30.27 in 2.5 mi Calm Calm - N/A   Overcast
10:15 AM 55.0 °F 54.1 °F 97% 30.28 in 2.5 mi Calm Calm - N/A   Overcast
10:35 AM 55.6 °F 54.7 °F 97% 30.28 in 2.0 mi Calm Calm - N/A   Overcast
10:55 AM 55.8 °F 54.9 °F 97% 30.28 in 4.0 mi Calm Calm - N/A   Overcast
11:15 AM 56.5 °F 55.6 °F 97% 30.27 in 7.0 mi Calm Calm - N/A   Overcast
12:15 PM 60.3 °F 59.4 °F 97% 30.25 in 10.0 mi Calm Calm - N/A   Scattered Clouds
12:35 PM 65.1 °F 61.3 °F 88% 30.25 in 10.0 mi Calm Calm - N/A   Clear
12:55 PM 67.5 °F 57.2 °F 70% 30.24 in 10.0 mi Calm Calm - N/A   Clear
1:15 PM 70.2 °F 55.2 °F 59% 30.23 in 10.0 mi Calm Calm - N/A   Clear
1:35 PM 71.8 °F 55.4 °F 56% 30.22 in 10.0 mi Calm Calm - N/A   Clear
1:55 PM 73.4 °F 54.9 °F 52% 30.21 in 10.0 mi Calm Calm - N/A   Clear
2:15 PM 74.1 °F 51.4 °F 45% 30.20 in 10.0 mi Calm Calm - N/A   Clear
2:35 PM 75.0 °F 50.7 °F 42% 30.19 in 10.0 mi Calm Calm - N/A   Clear
2:55 PM 76.6 °F 52.7 °F 43% 30.18 in 10.0 mi Calm Calm - N/A   Clear
3:15 PM 77.0 °F 52.5 °F 42% 30.18 in 10.0 mi Calm Calm - N/A   Clear
3:35 PM 77.5 °F 53.6 °F 43% 30.17 in 10.0 mi Calm Calm - N/A   Clear
3:55 PM 77.5 °F 54.1 °F 44% 30.17 in 10.0 mi WSW 3.5 mph - N/A   Clear
4:15 PM 78.1 °F 53.6 °F 43% 30.17 in 10.0 mi Calm Calm - N/A   Clear
4:35 PM 77.9 °F 53.8 °F 43% 30.17 in 10.0 mi Calm Calm - N/A   Clear
4:55 PM 78.1 °F 52.9 °F 41% 30.17 in 10.0 mi Calm Calm - N/A   Clear
5:15 PM 78.1 °F 54.1 °F 43% 30.17 in 10.0 mi Calm Calm - N/A   Clear
5:35 PM 77.7 °F 55.2 °F 46% 30.17 in 10.0 mi Calm Calm - N/A   Clear
5:55 PM 75.6 °F 59.4 °F 57% 30.17 in 10.0 mi Calm Calm - N/A   Clear
6:15 PM 73.6 °F 60.3 °F 63% 30.17 in 10.0 mi Calm Calm - N/A   Clear
6:35 PM 70.7 °F 61.0 °F 71% 30.18 in 10.0 mi Calm Calm - N/A   Clear
6:55 PM 68.2 °F 60.8 °F 77% 30.18 in 10.0 mi SW 4.6 mph - N/A   Clear
7:15 PM 66.2 °F 61.2 °F 84% 30.18 in 10.0 mi Calm Calm - N/A   Scattered Clouds
7:35 PM 64.2 °F 61.0 °F 89% 30.19 in 10.0 mi Calm Calm - N/A   Clear
7:55 PM 62.8 °F 61.2 °F 94% 30.20 in 10.0 mi Calm Calm - N/A   Clear
8:15 PM 62.4 °F 60.6 °F 94% 30.20 in 10.0 mi Calm Calm - N/A   Clear
8:35 PM 61.0 °F 60.1 °F 97% 30.21 in 10.0 mi Calm Calm - N/A   Clear
8:55 PM 60.1 °F 59.7 °F 99% 30.22 in 7.0 mi Calm Calm - N/A   Clear
9:15 PM 59.4 °F 59.0 °F 99% 30.22 in 7.0 mi Calm Calm - N/A   Clear
9:35 PM 58.5 °F 58.1 °F 99% 30.23 in 4.0 mi Calm Calm - N/A   Clear
9:55 PM 57.7 °F 57.4 °F 99% 30.23 in 5.0 mi Calm Calm - N/A   Clear
10:15 PM 57.7 °F 57.4 °F 99% 30.23 in 4.0 mi Calm Calm - N/A   Clear
10:35 PM 56.8 °F 56.5 °F 99% 30.23 in 4.0 mi Calm Calm - N/A   Clear
10:55 PM 55.9 °F 55.6 °F 99% 30.24 in 4.0 mi Calm Calm - N/A   Clear
11:15 PM 56.1 °F 55.6 °F 98% 30.24 in 7.0 mi Calm Calm - N/A   Clear
11:35 PM 55.4 °F 55.0 °F 99% 30.23 in 7.0 mi Calm Calm - N/A   Clear
11:55 PM 54.9 °F 54.5 °F 99% 30.23 in 7.0 mi Calm Calm - N/A   Clear